sat.trackr.live / text

‹ back to catalog

NAVSTAR 66 (USA 232)

NORAD 37753 · 2011-036A

PAYLOAD ACTIVE UNKNOWN

§ Identity

Operator
Country
US
Launch date
2011-07-16
Launch site
AFETR
Launch vehicle
Mass (kg)
RCS (m²)
12.59

External: N2YO · Heavens-Above · Gunter

§ Orbital elements

Epoch: 2026-09-19T14:57:43.054272Z

Period
717.99 min
Inclination
56.5136°
Eccentricity
0.0140612
Mean motion
2.00561236 rev/d
Perigee alt
19,808.9 km
Apogee alt
20,555.9 km
Semi-major
26,560.6 km
B*
0.0000e+0
RAAN
328.3424°
Arg perigee
63.0508°
Mean anomaly
315.4967°
Rev number
11,117

§ Raw data

NAVSTAR 66 (USA 232)1 37753U 11036A   26262.62341498 -.00000081  00000+0  00000+0 0  99992 37753  56.5136 328.3424 0140612  63.0508 315.4967  2.00561236111176

JSON: /api/v1/satellites/37753 · /tle

For live sub-satellite position, see the globe view (requires WebGL).

§ Visibility from observer

Set your observer location to see the next 7 days of passes ≥ 10°. The values pass through the URL so the page stays shareable.

No JS? Fill the form by hand. The geolocation button needs JavaScript.